User: anonymous   Login
Location: Syracuse
(43.0480°N, 76.1480°W)
Time: 06:39:43
(UTC-04:00)
Language:

Cosmos 1140 Rocket - Orbit

View from above orbital plane
View from above orbital plane
View from above satellite
View from above satellite

Ground track
Ground track

The orbit data is extracted from the following two-line orbital elements,

1 11574U 79089B   16149.69295576  .00000055  00000-0  25517-4 0  9995
2 11574  74.0693 208.7240 0016496 215.3540 144.6523 14.40573741921775
Epoch (UTC): 28 May 2016 16:37:51
Eccentricity: 0.0016496
inclination: 74.0693°
perigee height: 745 km
apogee height: 768 km
right ascension of ascending node: 208.7240°
argument of perigee: 215.3540°
revolutions per day: 14.40573741
mean anomaly at epoch: 144.6523°
orbit number at epoch: 92177

The dashed part of the orbit path shows where the satellite is in the earth's shadow,  

DLR